Tracking 29790 objects as of 12-Oct-2024
HD Live streaming from Space Station
objects crossing your sky now

STARLINK-3892

Track STARLINK-3892 now!
10-day predictions
STARLINK-3892 is classified as:


NORAD ID: 52488
Int'l Code: 2022-049AP
Perigee: 546.0 km
Apogee: 547.8 km
Inclination: 53.2 °
Period: 95.4 minutes
Semi major axis: 6917 km
RCS: Unknown
Launch date: May 6, 2022
Source: United States (US)
Launch site: AIR FORCE EASTERN TEST RANGE (AFETR)
Your satellite tracking list
Your tracking list is empty




NASA's NSSDC Master Catalog

Two Line Element Set (TLE):
1 52488U 22049AP  24286.18670036 -.00004563  00000-0 -26886-3 0  9990
2 52488  53.2153 204.3245 0001261  97.7908 262.3227 15.08831758134893
Source of the keplerian elements: AFSPC